Location: La Pernelle
(49.6188°N, 1.2999°W)
Time: 04:35:23
(UTC+00:00)

Cosmos 1513 Rocket - Visible Passes

Search period start: 17 October 2021 00:00
Search period end: 27 October 2021 00:00
Orbit: 938 x 1009 km, 82.9° (Epoch: 16 October)

Date Brightness Start Highest point End Pass type
(mag) Time Alt. Az. Time Alt. Az. Time Alt. Az.
17 Oct 7.2 23:33:44 11° N 23:33:44 11° N 23:33:55 10° N visible
19 Oct 7.2 22:38:43 10° N 22:38:43 10° N 22:38:45 10° N visible
25 Oct 7.1 06:08:22 10° NNE 06:10:33 12° NE 06:12:44 10° ENE visible
